[[{"header":{"parameterUnit":"m.s-1","parameterCategory":1,"la1":30.2992,"la2":30.254,"lo1":-89.0895,"lo2":-89.0443,"dy":0.0025,"dx":0.0025,"nx":19,"ny":19,"refTime":"2026-04-21T21:00:00:Z","depth":0,"parameterNumber":2,"parameterNumberName":"U-component_of_WINDS"},"data":[0,0,0,-3.0953,-3.0956,-3.1121,-3.1122,-3.1332,-3.1334,0,0,0,0,0,0,0,0,0,0,0,-3.0902,-3.0904,-3.0952,-3.0956,-3.1121,-3.1122,-3.1331,-3.1334,0,0,0,0,0,0,0,0,0,0,0,-3.0902,-3.0903,-3.0905,-3.0957,-3.1121,-3.1122,-3.1331,-3.1207,0,0,0,0,0,0,0,0,0,0,-3.1047,-3.0999,-3.0903,-3.0905,-3.0958,-3.1121,-3.1122,-3.1201,-3.1215,-3.1256,0,-3.1292,0,-3.1316,-3.1348,-3.1348,0,0,0,-3.0958,-3.0988,-3.1033,-3.0905,-3.0959,-3.112,-3.1047,-3.1209,-3.1224,-3.1275,-3.1295,-3.1303,-3.132,-3.1349,-3.135,-3.1583,-3.1584,0,0,-3.0948,-3.0932,-3.1023,-3.1043,-3.1017,-3.1042,-3.1052,-3.1218,-3.124,-3.1296,-3.1308,-3.1323,-3.135,-3.1352,-3.1583,-3.1584,0,0,0,-3.0922,-3.0925,-3.0967,-3.1035,-3.1064,-3.1046,-3.1058,-3.1233,-3.1248,-3.131,-3.1326,-3.1351,-3.1354,-3.1581,-3.1583,-3.1616,0,0,0,-3.0916,-3.0909,-3.0963,-3.0954,-3.1061,-3.115,-3.1069,-3.1236,-3.1255,-3.1325,-3.1352,-3.1356,-3.158,-3.1582,-3.1613,-3.1635,0,0,0,-3.0892,-3.0907,-3.093,-3.0953,-3.1023,-3.1148,-3.1173,-3.1241,-3.1265,-3.1348,-3.1357,-3.158,-3.1582,-3.161,-3.163,-3.169,0,0,0,-3.0862,-3.0958,-3.093,-3.1044,-3.1021,-3.1167,-3.1172,-3.1282,-3.1358,-3.1353,-3.158,-3.1583,-3.1609,-3.1627,-3.1687,-3.1737,-3.1757,0,0,-3.0974,-3.0971,-3.1039,-3.1019,-3.1165,-3.1144,-3.1296,-3.1382,-3.1406,-3.1523,-3.1529,-3.1614,-3.163,-3.169,-3.1875,-3.189,0,0,0,-3.1069,-3.1118,-3.116,-3.1231,-3.1299,-3.1358,-3.1423,-3.1455,-3.1555,-3.1463,-3.1653,-3.1663,-3.1699,-3.1724,-3.1737,-3.1769,-3.1594,-3.1594,-3.1593,-3.1203,-3.1228,-3.1342,-3.1387,-3.1456,-3.1521,-3.1579,-3.1634,-3.164,-3.1684,-3.1719,-3.1828,-3.1856,-3.1866,-3.1899,-3.1748,-3.1749,-3.1749,-3.1749,-3.1368,-3.1441,-3.1446,-3.1558,-3.1584,-3.1679,-3.1747,-3.1748,-3.184,-3.1804,-3.1837,-3.1794,-3.1882,-3.1912,-3.1752,-3.1751,-3.1751,-3.1751,-3.175,-3.1458,-3.1497,-3.1533,-3.1638,-3.1716,-3.1759,-3.1848,-3.1869,-3.189,-3.1923,-3.1961,-3.196,-3.1962,-3.194,-3.194,-3.194,-3.1941,-3.1941,-3.1941,-3.1536,-3.1576,-3.1647,-3.1727,-3.1775,-3.1841,-3.1908,-3.1956,-3.2016,-3.2024,-3.2025,-3.2026,-3.1886,-3.185,-3.1947,-3.1946,-3.1945,-3.1945,-3.1944,-3.1693,-3.166,-3.177,-3.1818,-3.1913,-3.1989,-3.2016,-3.2112,-3.2155,-3.2198,-3.2193,-3.2087,-3.2086,-3.2076,-3.2046,-3.2187,-3.2187,-3.2188,-3.2188,-3.1767,-3.1769,-3.1886,-3.1961,-3.2037,-3.2072,-3.2196,-3.2249,-3.23,-3.2328,-3.2311,-3.2274,-3.2263,-3.2268,-3.2254,-3.2226,-3.2411,-3.2411,-3.2411,-3.1865,-3.1875,-3.1975,-3.2023,-3.2099,-3.2164,-3.2281,-3.2368,-3.2419,-3.2421,-3.2351,-3.2341,-3.2282,-3.2261,-3.226,-3.2237,-3.2187,0,0]},{"header":{"parameterUnit":"m.s-1","parameterCategory":1,"la1":30.2992,"la2":30.254,"lo1":-89.0895,"lo2":-89.0443,"dy":0.0025,"dx":0.0025,"nx":19,"ny":19,"refTime":"2026-04-21T21:00:00:Z","depth":0,"parameterNumber":3,"parameterNumberName":"V-component_of_WINDS"},"data":[0,0,0,4.3515,4.3516,4.3581,4.3582,4.3678,4.3679,0,0,0,0,0,0,0,0,0,0,0,4.3505,4.3506,4.3514,4.3516,4.3581,4.3582,4.3678,4.3679,0,0,0,0,0,0,0,0,0,0,0,4.3505,4.3506,4.3507,4.3517,4.3581,4.3582,4.3677,4.3623,0,0,0,0,0,0,0,0,0,0,4.3557,4.3559,4.3506,4.3507,4.3517,4.3581,4.3582,4.362,4.3627,4.3655,0,4.3684,0,4.3683,4.3686,4.3687,0,0,0,4.3508,4.3554,4.3563,4.3507,4.3518,4.3581,4.355,4.3624,4.3631,4.3663,4.3685,4.3689,4.3685,4.3687,4.3688,4.388,4.3881,0,0,4.3505,4.3522,4.3558,4.3568,4.3561,4.3548,4.3552,4.3628,4.3652,4.3686,4.3691,4.3687,4.3688,4.3689,4.3879,4.3881,0,0,0,4.35,4.352,4.3526,4.3564,4.3575,4.355,4.3555,4.3649,4.365,4.3691,4.3688,4.3688,4.369,4.3878,4.388,4.3959,0,0,0,4.3497,4.3517,4.3525,4.3536,4.3574,4.3614,4.3575,4.3645,4.3653,4.3687,4.3689,4.3691,4.3876,4.3879,4.3954,4.3993,0,0,0,4.3497,4.3517,4.353,4.3537,4.3566,4.3612,4.3617,4.3646,4.3651,4.3687,4.3691,4.3875,4.3878,4.3949,4.3985,4.4047,0,0,0,4.3502,4.36,4.3531,4.3638,4.3566,4.3662,4.3616,4.3686,4.3727,4.3689,4.3876,4.3879,4.3948,4.3981,4.4043,4.4102,4.4129,0,0,4.3634,4.3616,4.3678,4.3619,4.3731,4.365,4.3774,4.3794,4.3781,4.3847,4.3852,4.3955,4.3985,4.4046,4.4277,4.4298,0,0,0,4.3725,4.3769,4.3796,4.3836,4.3855,4.3873,4.3873,4.388,4.3936,4.3819,4.3995,4.4012,4.4047,4.4075,4.4093,4.4121,4.3893,4.3893,4.3893,4.3936,4.3915,4.4015,4.4002,4.4041,4.404,4.4069,4.4078,4.4045,4.4087,4.4106,4.4248,4.4281,4.4295,4.4325,4.4137,4.4137,4.4137,4.4138,4.4126,4.4184,4.4139,4.4219,4.4195,4.4262,4.4264,4.4238,4.4295,4.4232,4.4262,4.4194,4.4319,4.4344,4.4143,4.4142,4.4142,4.4141,4.4141,4.426,4.4284,4.4293,4.4348,4.4392,4.4375,4.4432,4.4409,4.4387,4.4417,4.4433,4.4432,4.4426,4.4427,4.4427,4.4428,4.4428,4.4429,4.4429,4.4395,4.4402,4.4454,4.4482,4.4504,4.453,4.4529,4.455,4.4566,4.4544,4.4544,4.4505,4.4336,4.4293,4.4436,4.4435,4.4434,4.4433,4.4433,4.4593,4.4545,4.4624,4.4647,4.4676,4.4721,4.4691,4.4735,4.4748,4.4776,4.4732,4.4611,4.459,4.4575,4.4539,4.4737,4.4737,4.4738,4.4738,4.4705,4.4693,4.4768,4.4805,4.4838,4.4819,4.4907,4.4907,4.4899,4.4906,4.4874,4.4825,4.4811,4.4798,4.4778,4.4744,4.499,4.4991,4.4991,4.4824,4.4814,4.4894,4.4887,4.4909,4.4927,4.5009,4.5051,4.5032,4.5,4.491,4.4899,4.4819,4.4795,4.476,4.473,4.4667,0,0]}]]